Sigfox identifier Datetime Temperature Humidity SNR
003C48CD 2019-02-20 14:09:25 22.1 17 23.4
003C48CD 2019-02-20 14:08:09 21.9 18 23.3
003C48CD 2019-02-20 13:35:27 21.9 18 23.5
003C48CD 2019-02-20 13:02:44 21.9 19 23.5
003C48CD 2019-02-20 12:30:02 21.9 21 23.6
003C48CD 2019-02-20 11:57:23 21.9 22 23.8
003C48CD 2019-02-20 11:24:44 22 24 23.8
003C48CD 2019-02-20 10:52:04 22 26 23.9
003C48CD 2019-02-20 10:19:23 22 28 23.8
003C48CD 2019-02-20 09:46:44 22.1 31 23.9
003C48CD 2019-02-20 09:14:04 22 29 23.9
003C48CD 2019-02-20 08:41:28 22 26 23.9
003C48CD 2019-02-20 08:08:47 22 26 23.9
003C48CD 2019-02-20 07:36:06 22 27 23.9
003C48CD 2019-02-20 07:03:23 22.1 27 24
003C48CD 2019-02-20 06:30:42 22.1 27 24
003C48CD 2019-02-20 05:58:01 22.1 27 23.9
003C48CD 2019-02-20 05:25:19 22.1 28 23.8
003C48CD 2019-02-20 04:52:41 22.1 28 23.8
003C48CD 2019-02-20 04:20:04 22.1 28 23.9
003C48CD 2019-02-20 03:47:22 22.2 27 23.8
003C48CD 2019-02-20 03:14:42 22.2 27 23.9
003C48CD 2019-02-20 02:42:01 22.2 27 24
003C48CD 2019-02-20 02:09:19 22.4 27 23.9
003C48CD 2019-02-20 01:36:39 22.4 27 23.9
003C48CD 2019-02-20 01:03:57 22.4 28 24
003C48CD 2019-02-20 00:31:17 22.4 28 24.1
003C48CD 2019-02-19 23:58:38 22.4 28 24
003C48CD 2019-02-19 23:25:56 22.4 28 24
003C48CD 2019-02-19 22:53:12 22.4 28 23.9
003C48CD 2019-02-19 22:20:32 22.3 28 23.8
003C48CD 2019-02-19 21:47:51 22.3 28 23.8
003C48CD 2019-02-19 21:15:08 22.2 27 23.7
003C48CD 2019-02-19 20:42:24 22.1 27 23.8
003C48CD 2019-02-19 20:09:42 22.1 27 23.9
003C48CD 2019-02-19 19:37:00 22.1 27 23.8
003C48CD 2019-02-19 19:04:22 22.1 27 23.8
003C48CD 2019-02-19 18:31:40 22 27 23.8
003C48CD 2019-02-19 17:58:57 22 26 23.8
003C48CD 2019-02-19 17:26:16 22 26 23.9
003C48CD 2019-02-19 16:53:37 22 26 24
003C48CD 2019-02-19 16:20:56 22 26 24.1
003C48CD 2019-02-19 15:48:14 22 26 24.1
003C48CD 2019-02-19 15:15:31 22.1 26 24.1
003C48CD 2019-02-19 14:42:48 22.1 26 23.9
003C48CD 2019-02-19 14:10:05 22.1 26 24
003C48CD 2019-02-19 13:37:20 22.1 26 23.9
003C48CD 2019-02-19 13:04:38 22.1 26 23.8
003C48CD 2019-02-19 12:31:56 22.1 26 23.7
003C48CD 2019-02-19 11:59:14 22.2 27 23.9
003C48CD 2019-02-19 11:26:33 22.4 27 23.9
003C48CD 2019-02-19 11:25:17 22.2 28 23.9
003C48CD 2019-02-19 10:52:37 22.2 27 23.9
003C48CD 2019-02-19 10:20:00 22.3 27 23.9
003C48CD 2019-02-19 09:47:19 22.5 28 23.9
003C48CD 2019-02-19 09:14:38 23.1 28 24
003C48CD 2019-02-19 08:41:58 23.1 24 23.9
003C48CD 2019-02-19 08:09:17 23.1 24 24.1
003C48CD 2019-02-19 07:36:39 23.2 24 24.1
003C48CD 2019-02-19 07:03:57 23.1 24 24
003C48CD 2019-02-19 06:31:16 23.2 24 24.1
003C48CD 2019-02-19 05:58:33 23.2 24 24
003C48CD 2019-02-19 05:25:50 23.2 24 24.5
003C48CD 2019-02-19 04:53:08 23.2 24 24.5
003C48CD 2019-02-19 04:20:27 23.2 24 24.2
003C48CD 2019-02-19 03:47:46 23.2 24 24.1
003C48CD 2019-02-19 03:15:04 23.3 24 24
003C48CD 2019-02-19 02:42:20 23.2 24 23.7
003C48CD 2019-02-19 02:09:39 23.3 24 23.6
003C48CD 2019-02-19 01:37:00 23.3 24 23.6
003C48CD 2019-02-19 01:04:20 23.3 24 23.4
003C48CD 2019-02-19 00:31:37 23.3 24 23.3
003C48CD 2019-02-18 23:58:57 23.3 24 23.2
003C48CD 2019-02-18 23:26:20 23.3 24 23.2
003C48CD 2019-02-18 22:53:38 23.3 24 22.9
003C48CD 2019-02-18 22:20:54 23.3 24 22.7
003C48CD 2019-02-18 21:48:11 23.3 24 22.5
003C48CD 2019-02-18 21:15:28 23.2 24 22.5
003C48CD 2019-02-18 20:42:48 23.2 23 22.6
003C48CD 2019-02-18 20:10:06 23.2 24 22.6
003C48CD 2019-02-18 19:37:23 23.2 24 22.6
003C48CD 2019-02-18 19:04:43 23.1 24 22.5
003C48CD 2019-02-18 18:32:01 22.9 24 22.4
003C48CD 2019-02-18 17:59:19 22.6 24 22.3
003C48CD 2019-02-18 17:26:38 22.2 24 22.4
003C48CD 2019-02-18 16:53:55 21.6 24 22.2
003C48CD 2019-02-18 15:48:33 20.8 23 22.4
003C48CD 2019-02-18 15:15:50 20.7 23 21.6
003C48CD 2019-02-18 14:43:07 20.7 23 21.9
003C48CD 2019-02-18 14:10:24 20.6 23 22.2
003C48CD 2019-02-18 13:37:41 20.6 23 22.3
003C48CD 2019-02-18 13:05:01 20.5 23 22.4
003C48CD 2019-02-18 12:32:18 20.4 23 22.7
003C48CD 2019-02-18 11:59:34 20.4 22 23
003C48CD 2019-02-18 11:26:53 20.3 22 23.1
003C48CD 2019-02-18 10:54:11 20.2 22 23.2
003C48CD 2019-02-18 10:21:28 20.1 23 23.3
003C48CD 2019-02-18 09:48:48 20 23 23.4
003C48CD 2019-02-18 09:16:05 19.7 23 24
003C48CD 2019-02-18 08:43:24 19.6 23 24.2
003C48CD 2019-02-18 08:42:07 19.4 23 24.4
003C48CD 2019-02-18 08:09:26 19.5 20 24.6
003C48CD 2019-02-18 07:36:47 22.4 22 24.6
003C48CD 2019-02-18 07:04:05 22.4 21 24.5
003C48CD 2019-02-18 06:31:21 22.4 21 24.5
003C48CD 2019-02-18 05:58:37 22.4 21 24.6
003C48CD 2019-02-18 05:25:56 22.4 21 24.6
003C48CD 2019-02-18 04:53:19 22.4 22 24.6
003C48CD 2019-02-18 04:20:38 22.4 22 24.6
003C48CD 2019-02-18 03:47:58 22.4 22 24.5
003C48CD 2019-02-18 03:15:16 22.4 22 24.6
003C48CD 2019-02-18 02:42:34 22.4 22 24.5
003C48CD 2019-02-18 02:09:52 22.4 22 24.5
003C48CD 2019-02-18 01:37:11 22.4 22 24.5
003C48CD 2019-02-18 01:04:28 22.4 22 24.5
003C48CD 2019-02-18 00:31:43 22.4 23 24.5
003C48CD 2019-02-17 23:59:00 22.3 23 24.5
003C48CD 2019-02-17 23:26:17 22.3 23 24.5
003C48CD 2019-02-17 22:53:37 22.3 23 24.4
003C48CD 2019-02-17 22:20:54 22.3 23 24.3
003C48CD 2019-02-17 21:48:10 22.3 23 24.4
003C48CD 2019-02-17 21:15:29 22.3 23 24.5
003C48CD 2019-02-17 20:42:48 22.2 23 24.6
003C48CD 2019-02-17 20:10:06 22.2 24 24.1
003C48CD 2019-02-17 19:37:25 22.2 24 24
003C48CD 2019-02-17 19:04:43 22.2 24 24
003C48CD 2019-02-17 18:32:02 22.3 24 23.9
003C48CD 2019-02-17 17:59:19 22.3 24 23.9
003C48CD 2019-02-17 17:26:38 22.3 25 23.9
003C48CD 2019-02-17 16:53:54 22.4 25 23.9
003C48CD 2019-02-17 16:21:12 22.4 25 23.8
003C48CD 2019-02-17 15:48:29 22.4 25 23.9
003C48CD 2019-02-17 15:15:49 22.3 24 23.9
003C48CD 2019-02-17 14:43:06 22.3 24 23.9
003C48CD 2019-02-17 14:10:26 22.3 24 23.9
003C48CD 2019-02-17 13:37:45 22.3 24 23.7
003C48CD 2019-02-17 13:05:03 22.2 24 23.7
003C48CD 2019-02-17 12:32:21 22.2 25 23.7
003C48CD 2019-02-17 11:59:41 22.1 25 23.7
003C48CD 2019-02-17 11:26:58 22.1 25 23.7
003C48CD 2019-02-17 10:54:15 22.1 25 23.7
003C48CD 2019-02-17 10:21:34 22.1 25 23.6
003C48CD 2019-02-17 09:48:53 22.1 25 23.6
003C48CD 2019-02-17 09:16:11 22.1 25 23.5
003C48CD 2019-02-17 08:43:30 22.1 25 23.6
003C48CD 2019-02-17 08:10:48 22.1 25 23.6
003C48CD 2019-02-17 07:38:06 22.1 25 23.5
003C48CD 2019-02-17 07:05:22 22.2 26 23.5
003C48CD 2019-02-17 06:32:41 22.2 26 23.5
003C48CD 2019-02-17 06:00:00 22.4 26 23.5
003C48CD 2019-02-17 05:58:44 22.2 26 23.5
003C48CD 2019-02-17 05:26:02 22.2 26 23.5
003C48CD 2019-02-17 04:53:22 22.2 26 23.6
003C48CD 2019-02-17 04:20:40 22.2 26 23.4
003C48CD 2019-02-17 03:47:59 22.2 26 23.4
003C48CD 2019-02-17 03:15:17 22.2 27 23.4
003C48CD 2019-02-17 02:42:33 22.2 27 23.4
003C48CD 2019-02-17 02:09:49 22.2 27 23.3
003C48CD 2019-02-17 01:37:07 22.3 27 23.4
003C48CD 2019-02-17 01:04:23 22.3 27 23.4
003C48CD 2019-02-17 00:31:42 22.3 27 23.5
003C48CD 2019-02-16 23:59:00 22.3 27 23.6
003C48CD 2019-02-16 23:26:20 22.3 27 23.5
003C48CD 2019-02-16 22:53:42 22.2 27 23.5
003C48CD 2019-02-16 22:20:59 22.2 27 23.5
003C48CD 2019-02-16 21:48:18 22.2 27 23.4
003C48CD 2019-02-16 21:15:36 22.2 27 23.4
003C48CD 2019-02-16 20:42:54 22.2 27 23.4
003C48CD 2019-02-16 20:10:11 22.2 27 23.3
003C48CD 2019-02-16 19:37:30 22.2 27 23.4
003C48CD 2019-02-16 19:04:51 22.2 27 23.3
003C48CD 2019-02-16 18:32:12 22.2 27 23.3
003C48CD 2019-02-16 17:59:29 22.2 27 23.4
003C48CD 2019-02-16 17:26:47 22.2 27 23.3
003C48CD 2019-02-16 16:54:03 22.2 27 23.3
003C48CD 2019-02-16 16:21:22 22.2 27 23.2
003C48CD 2019-02-16 15:48:38 22.2 27 23.1
003C48CD 2019-02-16 15:15:55 22.2 27 23.1
003C48CD 2019-02-16 14:43:11 22.2 27 23.2
003C48CD 2019-02-16 14:10:29 22.2 27 23.2
003C48CD 2019-02-16 13:37:46 22.2 27 23.2
003C48CD 2019-02-16 13:05:10 22.1 27 23.2
003C48CD 2019-02-16 12:32:24 22.2 27 23.3
003C48CD 2019-02-16 11:59:41 22.2 27 23.4
003C48CD 2019-02-16 11:27:03 22.2 27 23.4
003C48CD 2019-02-16 10:54:24 22.2 27 23.4
003C48CD 2019-02-16 10:21:42 22.2 27 23.2
003C48CD 2019-02-16 09:49:01 22.2 27 23.4
003C48CD 2019-02-16 09:16:19 22.3 27 23.5
003C48CD 2019-02-16 08:43:37 22.3 27 23.5
003C48CD 2019-02-16 08:10:55 22.3 27 23.7
003C48CD 2019-02-16 07:38:11 22.3 27 23.7
003C48CD 2019-02-16 07:05:28 22.4 27 23.8
003C48CD 2019-02-16 06:32:47 22.4 27 23.8
003C48CD 2019-02-16 06:00:04 22.4 27 23.9
003C48CD 2019-02-16 05:27:23 22.4 27 24
003C48CD 2019-02-16 04:54:44 22.4 27 23.9
003C48CD 2019-02-16 04:22:04 22.4 27 23.8
003C48CD 2019-02-16 03:49:22 22.5 27 23.8
003C48CD 2019-02-16 03:16:42 22.7 27 23.8
003C48CD 2019-02-16 03:15:26 22.4 27 23.8
003C48CD 2019-02-16 02:42:44 22.4 27 23.9
003C48CD 2019-02-16 02:10:07 22.4 27 23.9
003C48CD 2019-02-16 01:37:27 22.4 27 23.9
003C48CD 2019-02-16 01:04:47 22.4 27 23.9
003C48CD 2019-02-16 00:32:06 22.4 27 23.9
003C48CD 2019-02-15 23:59:25 22.4 27 23.9
003C48CD 2019-02-15 23:26:46 22.4 28 23.9
003C48CD 2019-02-15 22:54:05 22.4 27 23.8
003C48CD 2019-02-15 22:21:25 22.3 27 23.8
003C48CD 2019-02-15 21:48:45 22.4 27 23.9
003C48CD 2019-02-15 21:16:03 22.4 27 23.9
003C48CD 2019-02-15 20:43:21 22.3 27 23.9
003C48CD 2019-02-15 20:10:40 22.3 27 23.8
003C48CD 2019-02-15 19:38:00 22.3 27 23.8
003C48CD 2019-02-15 19:05:20 22.3 27 23.6
003C48CD 2019-02-15 18:32:42 22.3 27 23.6
003C48CD 2019-02-15 17:59:59 22.2 26 23.5
003C48CD 2019-02-15 17:27:19 22.2 26 23.6
003C48CD 2019-02-15 16:54:36 22.2 26 23.5
003C48CD 2019-02-15 16:21:55 22.2 26 23.4
003C48CD 2019-02-15 15:49:14 22.2 26 23.5
003C48CD 2019-02-15 15:16:35 22.2 26 23.6
003C48CD 2019-02-15 14:43:56 22.3 26 23.7
003C48CD 2019-02-15 14:11:16 22.2 27 23.8
003C48CD 2019-02-15 13:38:33 22.2 27 23.8
003C48CD 2019-02-15 13:05:52 22.2 27 23.7
003C48CD 2019-02-15 12:33:12 22.2 27 23.8
003C48CD 2019-02-15 12:00:31 22.1 27 23.7
003C48CD 2019-02-15 11:27:53 22.1 28 23.7
003C48CD 2019-02-15 10:55:13 22.1 28 23.7
003C48CD 2019-02-15 10:22:34 22.1 28 23.8
003C48CD 2019-02-15 09:49:57 22.2 28 23.8
003C48CD 2019-02-15 09:17:18 22.1 28 23.9
003C48CD 2019-02-15 08:44:37 22.1 28 23.9
003C48CD 2019-02-15 08:11:59 22.1 28 23.9
003C48CD 2019-02-15 07:39:18 22.1 28 23.8
003C48CD 2019-02-15 07:06:36 22.1 28 23.6
003C48CD 2019-02-15 06:33:56 22.1 28 23.6
003C48CD 2019-02-15 06:01:11 22.2 28 23.4
003C48CD 2019-02-15 05:28:28 22.2 29 23.3
003C48CD 2019-02-15 04:55:48 22.2 29 23.9
003C48CD 2019-02-15 04:23:06 22.2 29 23.8
003C48CD 2019-02-15 03:50:27 22.2 29 23.7
003C48CD 2019-02-15 03:17:48 22.2 29 23.6
003C48CD 2019-02-15 02:45:10 22.2 30 23.5
003C48CD 2019-02-15 02:12:28 22.2 30 23.3
003C48CD 2019-02-15 01:39:49 22.2 30 23.2
003C48CD 2019-02-15 01:07:08 22.1 30 23
003C48CD 2019-02-15 00:34:26 22.2 30 22.8
003C48CD 2019-02-15 00:33:11 22 30 22.6
003C48CD 2019-02-15 00:00:31 21.9 30 22.5
003C48CD 2019-02-14 23:27:51 21.7 30 22.3
003C48CD 2019-02-14 22:55:12 21.6 30 22.2
003C48CD 2019-02-14 22:22:33 21.3 31 22
003C48CD 2019-02-14 21:49:51 21 31 21.8
003C48CD 2019-02-14 21:17:07 20.7 31 21.4
003C48CD 2019-02-14 20:44:26 20.2 32 21.1
003C48CD 2019-02-14 20:11:43 19.6 33 20.8
003C48CD 2019-02-14 19:39:01 18.6 33 20.4
003C48CD 2019-02-14 19:06:16 17.9 30 19.9
003C48CD 2019-02-14 18:33:34 19.7 25 19.9
003C48CD 2019-02-14 18:00:53 20.8 22 21.4
003C48CD 2019-02-14 17:28:11 22.1 25 21.3
003C48CD 2019-02-14 16:55:30 22 25 21.3
003C48CD 2019-02-14 16:22:51 21.9 24 21.3
003C48CD 2019-02-14 15:50:12 21.8 24 19.9
003C48CD 2019-02-14 15:17:36 21.8 24 19.9
003C48CD 2019-02-14 14:44:54 21.6 24 19.7
003C48CD 2019-02-14 14:12:14 21.5 24 19.8
003C48CD 2019-02-14 13:39:31 21.4 24 19.6
003C48CD 2019-02-14 13:06:51 21.4 24 19.5
003C48CD 2019-02-14 12:34:12 21.3 24 19.4
003C48CD 2019-02-14 11:28:47 21.1 24 19.3
003C48CD 2019-02-14 10:56:04 21 24 19.3
003C48CD 2019-02-14 10:23:20 20.9 24 20.9
003C48CD 2019-02-14 09:50:38 20.8 24 20.9
003C48CD 2019-02-14 09:17:55 20.8 24 20.7
003C48CD 2019-02-14 08:45:14 20.7 24 20.7
003C48CD 2019-02-14 08:12:29 20.7 24 20.7
003C48CD 2019-02-14 07:39:50 20.8 25 20.6
003C48CD 2019-02-14 07:07:09 20.8 25 20.5
003C48CD 2019-02-14 06:34:27 20.8 25 20.6
003C48CD 2019-02-14 06:01:45 20.8 25 20.6
003C48CD 2019-02-14 05:29:03 20.8 25 20.6
003C48CD 2019-02-14 04:56:21 20.8 25 20.6
003C48CD 2019-02-14 04:23:42 20.8 25 20.4
003C48CD 2019-02-14 03:51:00 20.8 25 18.5
003C48CD 2019-02-14 03:18:20 20.8 25 18.4
003C48CD 2019-02-14 02:45:41 20.8 25 18.4
003C48CD 2019-02-14 02:12:59 20.8 25 18.4
003C48CD 2019-02-14 01:40:20 20.8 25 18.4
003C48CD 2019-02-14 01:07:35 20.9 25 18.4
003C48CD 2019-02-14 00:34:54 20.9 25 18.5
003C48CD 2019-02-14 00:02:12 20.9 25 18.4
003C48CD 2019-02-13 23:29:31 20.9 25 18.8
003C48CD 2019-02-13 22:56:48 20.9 25 18.8
003C48CD 2019-02-13 22:24:09 21 25 18.7
003C48CD 2019-02-13 21:51:29 21.3 25 18.8
003C48CD 2019-02-13 21:50:14 21 25 18.8
003C48CD 2019-02-13 21:17:28 21.1 25 15.7
003C48CD 2019-02-13 20:44:48 21.2 25 15.7
003C48CD 2019-02-13 20:12:12 21.2 25 16
003C48CD 2019-02-13 19:39:32 21.2 25 16.4
003C48CD 2019-02-13 19:06:50 21.3 25 17.2
003C48CD 2019-02-13 18:34:10 21.3 26 17.4
003C48CD 2019-02-13 18:01:26 21.3 26 17.9
003C48CD 2019-02-13 17:28:46 21.3 26 17.8
003C48CD 2019-02-13 16:56:05 21.3 27 17.9
003C48CD 2019-02-13 16:23:22 21.2 26 17.9
003C48CD 2019-02-13 15:50:41 21.1 25 18
003C48CD 2019-02-13 15:18:01 21.1 25 18.1
003C48CD 2019-02-13 14:45:20 21.1 25 18.3
003C48CD 2019-02-13 14:12:39 21.1 24 18.4
003C48CD 2019-02-13 13:39:58 21.1 24 18.7
003C48CD 2019-02-13 13:07:15 21.1 24 18.7
003C48CD 2019-02-13 12:34:33 21 24 18.7
003C48CD 2019-02-13 12:01:51 21 24 18.8
003C48CD 2019-02-13 11:29:11 20.9 24 18.8
003C48CD 2019-02-13 10:56:31 20.9 24 18.7
003C48CD 2019-02-13 10:23:50 20.8 23 18.5
003C48CD 2019-02-13 09:51:05 20.8 23 18.5
003C48CD 2019-02-13 09:18:22 20.8 22 18.7
003C48CD 2019-02-13 08:45:38 20.7 21 18.7
003C48CD 2019-02-13 08:12:55 20.7 20 18.7
003C48CD 2019-02-13 07:40:14 20.8 19 18.9
003C48CD 2019-02-13 07:07:31 20.8 19 19.1
003C48CD 2019-02-13 06:34:52 20.8 19 19
003C48CD 2019-02-13 06:02:09 20.8 19 18.9
003C48CD 2019-02-13 05:29:28 20.8 19 18.3
003C48CD 2019-02-13 04:56:48 20.8 19 18.2
003C48CD 2019-02-13 04:24:09 20.8 19 17.9
003C48CD 2019-02-13 03:51:29 20.8 19 17.8
003C48CD 2019-02-13 03:18:48 20.8 19 17.6
003C48CD 2019-02-13 02:46:08 20.8 19 17.7
003C48CD 2019-02-13 02:13:27 20.8 19 17.6
003C48CD 2019-02-13 01:40:44 20.8 18 17.5
003C48CD 2019-02-13 01:08:01 20.9 19 17.6
003C48CD 2019-02-13 00:35:16 20.9 19 17.5
003C48CD 2019-02-13 00:02:38 20.9 19 17.2
003C48CD 2019-02-12 23:29:53 20.9 19 17.2
003C48CD 2019-02-12 22:57:13 21 19 17.6
003C48CD 2019-02-12 22:24:33 21 19 17.4
003C48CD 2019-02-12 21:51:50 21.1 20 17.5
003C48CD 2019-02-12 21:19:07 21.2 21 17.7
003C48CD 2019-02-12 20:46:24 21.3 21 18
003C48CD 2019-02-12 20:13:43 21.4 20 18.1
003C48CD 2019-02-12 19:41:02 21.4 20 18.1
003C48CD 2019-02-12 19:08:21 21.7 20 18.6
003C48CD 2019-02-12 19:07:05 21.5 20 18.6
003C48CD 2019-02-12 18:34:22 21.5 19 18.5
003C48CD 2019-02-12 18:01:38 21.6 19 18.3
003C48CD 2019-02-12 17:28:55 21.7 19 18.3
003C48CD 2019-02-12 16:56:11 21.9 19 18.3
003C48CD 2019-02-12 16:23:26 22 19 18.3
003C48CD 2019-02-12 15:50:41 22 19 18.4
003C48CD 2019-02-12 15:17:59 21.9 19 18.3
003C48CD 2019-02-12 14:45:19 21.6 20 18.3
003C48CD 2019-02-12 14:12:40 21.4 20 18.6
003C48CD 2019-02-12 13:39:57 21.3 20 18.8
003C48CD 2019-02-12 13:07:15 21.3 20 18.8
003C48CD 2019-02-12 12:34:38 21.2 20 18.9
003C48CD 2019-02-12 12:01:59 21.2 20 18.8
003C48CD 2019-02-12 11:29:19 21.1 21 18.7
003C48CD 2019-02-12 10:56:37 21.1 21 18.6
003C48CD 2019-02-12 10:23:55 21 22 18.6
003C48CD 2019-02-12 09:51:13 21 22 18.6
003C48CD 2019-02-12 09:18:29 20.9 23 18.6
003C48CD 2019-02-12 08:45:45 20.8 23 18.8
003C48CD 2019-02-12 08:13:02 20.8 24 20.6
003C48CD 2019-02-12 07:40:17 20.8 25 20.5
003C48CD 2019-02-12 07:07:35 20.8 26 20.4
003C48CD 2019-02-12 06:34:55 20.8 26 20.2
003C48CD 2019-02-12 06:02:11 20.8 26 19.8
003C48CD 2019-02-12 05:29:26 20.8 26 19.9
003C48CD 2019-02-12 04:56:42 20.8 26 20
003C48CD 2019-02-12 04:23:57 20.9 27 20.1
003C48CD 2019-02-12 03:51:14 20.9 27 20.3
003C48CD 2019-02-12 03:18:35 20.9 27 20.4
003C48CD 2019-02-12 02:45:51 20.9 27 20.6
003C48CD 2019-02-12 02:13:06 20.9 27 20.7
003C48CD 2019-02-12 01:40:20 20.9 27 20.9
003C48CD 2019-02-12 01:07:36 20.9 27 21.1
003C48CD 2019-02-12 00:34:54 20.9 27 21.1
003C48CD 2019-02-12 00:02:14 21 27 21.1
003C48CD 2019-02-11 23:29:36 21 27 21.3
003C48CD 2019-02-11 22:56:53 21.1 27 21.5
003C48CD 2019-02-11 22:24:10 21.1 27 21.8
003C48CD 2019-02-11 21:51:26 21.2 27 22.1
003C48CD 2019-02-11 21:18:43 21.2 27 22.5
003C48CD 2019-02-11 20:46:00 21.3 27 22.9
003C48CD 2019-02-11 20:13:19 21.4 27 23.1
003C48CD 2019-02-11 19:40:36 21.5 27 23.5
003C48CD 2019-02-11 19:07:53 21.6 27 23.8
003C48CD 2019-02-11 18:35:12 21.7 27 17.1
003C48CD 2019-02-11 18:02:35 21.9 27 12.9
003C48CD 2019-02-11 17:29:54 22 28 11
003C48CD 2019-02-11 16:57:15 22.1 28 10.1
003C48CD 2019-02-11 16:24:36 22.3 32 0